Theta_e
308 308 307 307 308 309 310 312 313 313 312 312 312 311 311 312 315 318 320 318 320 319 317 319 320 324 324 326 325 325 329 331 332 336 337 341 340 338 338 337 338 339 341 347 349
308 307 307 307 309 310 310 312 313 313 313 312 311 310 312 314 323 321 320 319 319 319 320 322 323 325 328 328 327 326 329 329 330 332 335 340 339 338 338 337 338 342 347 349 349
307 307 306 307 309 310 311 312 313 313 312 312 311 311 313 317 324 321 320 320 320 319 320 321 324 326 328 325 326 326 327 326 328 332 335 338 338 337 336 335 333 338 347 349 348
307 306 306 309 310 310 311 312 313 313 312 312 311 312 314 324 321 321 318 319 319 320 320 322 324 325 325 325 324 325 325 325 329 332 336 337 337 338 336 335 334 335 344 347 349
306 306 308 309 310 311 311 312 312 312 312 311 311 313 319 323 321 320 318 318 319 320 322 324 325 325 325 324 324 325 324 326 329 333 336 336 338 337 337 341 340 342 345 347 347
307 308 309 310 310 311 311 312 312 312 312 311 313 314 322 322 320 322 322 321 321 321 323 324 324 325 325 325 325 323 325 328 332 335 335 337 338 339 339 342 345 346 346 347 346
308 309 310 310 311 311 311 311 311 311 311 313 314 315 321 322 320 320 320 321 321 322 323 323 323 325 325 325 323 324 325 328 331 335 337 337 338 338 340 342 347 347 347 347 344
309 309 310 310 311 311 310 311 311 311 313 314 315 320 324 321 320 321 321 321 320 321 321 322 322 324 325 325 325 325 325 326 327 330 333 334 330 333 340 342 346 348 349 347 344
308 309 309 310 310 309 309 311 313 314 314 315 320 321 322 321 322 322 322 323 322 322 322 320 324 326 326 326 325 326 325 325 325 325 326 330 329 333 339 342 344 348 348 346 344
307 308 309 309 309 309 312 315 317 314 317 315 318 323 323 323 323 321 322 322 324 324 325 326 326 326 326 326 326 327 326 326 326 324 324 325 327 327 334 339 342 346 347 345 343
308 308 308 308 310 313 318 320 323 322 323 321 323 324 323 323 321 323 322 324 326 325 325 326 326 327 327 327 326 326 326 326 326 324 326 326 326 326 329 337 340 344 346 344 341
309 308 308 309 312 317 320 326 325 324 323 323 323 323 322 322 324 324 324 326 327 325 326 326 327 326 326 326 327 327 327 327 326 325 326 328 326 330 331 337 339 342 344 342 336
310 308 310 312 316 320 324 323 321 322 326 322 323 323 324 323 324 325 325 326 326 326 326 326 326 325 326 327 327 327 327 327 327 327 327 325 324 330 333 335 338 340 340 338 334
313 310 312 315 322 323 325 321 321 322 324 323 323 324 323 324 324 324 325 327 326 326 326 327 325 326 326 327 327 327 326 326 327 327 326 323 322 327 329 334 336 337 339 338 337
313 311 313 316 323 325 322 321 322 323 322 324 323 322 323 324 325 325 325 327 327 326 327 328 326 326 327 327 326 327 325 325 324 325 324 324 324 329 328 330 331 334 336 336 335
313 312 313 317 322 321 320 321 323 323 326 325 324 323 323 324 325 325 326 328 328 328 327 327 325 326 327 324 324 325 325 325 324 323 326 326 324 327 327 330 331 331 333 335 335
314 315 313 317 324 317 322 325 323 319 324 326 324 323 324 324 325 326 327 329 329 330 329 328 328 326 326 328 328 327 326 326 326 324 324 324 324 327 327 328 330 331 332 333 334
314 316 314 315 319 317 325 325 323 323 329 329 327 324 324 324 325 326 327 329 329 328 329 330 331 328 326 328 328 326 325 326 326 326 324 325 326 329 326 327 327 328 331 332 329
313 322 324 323 315 319 327 324 321 327 328 329 329 327 325 324 325 325 327 327 328 329 330 330 330 326 324 324 324 326 327 324 327 327 327 325 325 326 326 326 326 327 327 327 325
317 326 326 320 316 327 325 320 323 326 326 329 331 330 328 325 325 326 327 329 329 328 329 331 332 328 326 323 323 324 323 327 328 331 327 324 325 325 325 326 326 326 326 325 322
318 329 323 321 324 326 325 322 323 323 326 330 331 332 330 329 326 327 328 329 328 328 329 332 334 331 328 329 327 325 325 325 326 326 327 326 325 325 325 325 325 326 325 323 321
317 322 321 323 326 327 326 327 321 325 326 329 330 331 331 331 331 331 331 331 327 328 331 331 333 333 329 325 324 326 326 326 327 329 327 327 328 325 325 324 324 325 323 321 320
320 320 322 325 326 327 329 328 328 327 327 329 330 331 330 332 334 332 331 327 328 329 331 330 333 334 331 327 325 325 324 324 327 328 328 331 330 325 324 324 323 322 321 320 320
323 321 325 327 327 329 330 330 329 327 327 327 330 330 331 331 332 333 331 327 327 329 322 329 331 330 329 327 325 326 325 324 326 329 328 325 325 325 324 325 324 322 322 321 320
321 325 325 326 329 329 331 330 329 327 326 327 330 329 330 331 330 331 330 327 326 324 327 332 330 329 327 326 325 324 323 324 326 326 328 327 326 326 325 324 323 322 321 320 319
323 323 323 326 324 326 323 331 330 327 327 328 330 328 330 331 330 330 331 330 329 327 329 329 331 329 328 326 326 325 325 326 326 326 326 326 326 324 323 322 322 322 321 320 319
319 321 324 317 326 326 327 328 328 327 326 326 327 328 329 329 328 329 329 331 330 331 332 332 331 332 329 326 325 326 326 325 325 325 325 326 325 324 324 324 323 322 321 320 320
Wind_Speed
3 3 3 2 3 3 2 2 1 3 6 9 12 14 16 17 13 5 8 3 3 1 2 4 7 6 6 2 3 5 6 6 7 6 9 13 10 3 3 8 3 4 3 12 14
4 4 3 3 4 3 3 2 3 5 7 10 13 15 17 18 5 7 2 6 4 1 3 6 11 8 7 4 3 9 4 5 2 4 11 16 10 13 9 8 7 7 8 14 14
5 4 3 4 4 3 3 3 4 6 9 11 14 16 19 7 7 6 1 6 5 2 2 2 5 10 8 4 3 2 4 4 4 4 10 15 11 11 10 11 12 15 15 14 13
4 4 4 4 4 4 4 4 5 7 10 12 14 17 16 4 5 4 2 3 6 4 3 3 7 11 6 6 3 8 2 1 4 5 10 14 11 11 9 4 9 11 14 14 12
4 4 5 4 4 4 5 6 7 9 11 12 14 15 6 6 10 2 2 3 3 4 2 2 6 4 5 6 6 3 5 3 3 9 10 10 11 12 9 2 5 10 12 12 10
4 5 5 5 4 5 6 7 8 10 11 13 14 13 5 10 3 2 1 2 4 4 1 1 6 4 7 5 2 2 5 7 5 9 7 12 6 7 8 5 9 11 12 10 9
4 5 5 5 5 5 6 8 10 11 12 13 11 8 5 8 2 2 3 1 2 2 0 2 3 5 2 9 4 5 7 8 5 7 5 9 8 13 7 8 13 12 10 8 8
5 6 6 5 5 6 7 9 11 12 12 11 9 4 2 2 1 0 4 3 2 1 1 1 2 2 2 6 6 5 7 10 8 7 6 8 15 13 9 11 14 14 11 10 8
6 6 6 5 5 6 7 9 11 11 9 6 3 5 9 2 3 2 1 1 6 3 3 2 3 0 6 11 9 7 3 3 5 4 2 10 17 14 8 11 14 14 13 11 11
6 6 5 4 5 6 7 9 7 5 4 6 7 5 4 3 4 3 1 1 2 4 7 8 6 7 7 9 5 4 2 3 2 4 6 12 16 11 7 12 14 14 13 13 12
3 4 3 4 4 5 6 2 5 5 7 4 4 3 2 6 1 3 1 4 3 5 5 4 9 6 9 8 6 2 1 4 0 3 7 6 9 11 7 12 14 14 13 13 13
1 1 3 3 3 5 1 1 4 4 3 3 3 4 3 3 3 4 1 4 5 6 6 10 9 7 6 4 2 3 5 1 4 3 9 9 11 6 6 11 13 12 13 14 13
1 2 3 2 4 1 3 3 1 2 4 5 2 2 2 5 2 5 3 2 2 8 5 2 12 4 1 1 6 2 8 6 9 11 14 9 15 7 3 7 7 9 11 13 13
2 4 3 2 3 2 3 6 2 5 5 7 7 4 5 2 4 3 3 3 2 7 6 7 8 2 2 2 7 6 6 8 11 12 10 6 6 5 2 6 10 12 13 13 13
3 5 3 1 3 1 5 2 5 3 5 5 6 2 3 5 5 3 3 3 5 6 6 6 7 3 3 6 4 7 7 9 10 12 7 5 8 8 1 3 7 11 14 14 13
6 5 4 0 1 3 5 3 3 5 3 6 6 8 11 8 4 4 2 5 2 3 1 6 2 2 5 2 2 5 9 10 6 4 7 5 5 6 5 6 5 1 9 11 12
9 4 5 2 2 6 2 5 5 5 3 7 7 9 12 9 6 5 6 7 2 5 5 5 6 4 2 7 7 8 10 5 4 2 4 2 8 7 5 3 4 1 5 9 10
9 3 5 3 4 6 5 4 5 3 1 3 1 5 11 10 7 7 7 6 3 5 1 3 7 6 2 4 7 5 7 5 5 6 10 5 2 5 3 1 2 4 4 5 3
7 0 2 3 4 3 6 5 1 1 2 1 5 9 8 9 5 10 9 4 1 4 5 3 1 6 4 1 4 4 4 4 6 6 7 2 3 8 4 5 4 2 3 5 5
4 3 2 2 3 4 4 2 2 1 4 2 6 4 11 13 11 9 9 1 4 1 2 1 7 1 4 2 4 5 2 4 4 4 8 4 4 2 2 3 5 6 7 5 4
2 4 3 3 3 5 6 2 2 1 2 3 1 3 4 5 10 7 3 5 2 4 2 3 3 6 5 3 7 3 5 2 4 5 5 8 4 6 5 6 9 8 5 5 5
4 4 4 3 6 3 6 4 1 2 3 4 4 2 3 3 4 6 6 2 1 2 3 2 2 6 6 2 4 5 6 5 4 3 4 7 9 5 4 7 6 4 3 3 5
4 2 2 3 6 7 4 4 2 3 3 3 4 2 1 4 3 3 4 3 2 2 4 4 2 5 5 7 5 5 2 3 3 5 10 8 5 3 2 4 3 3 4 5 5
3 4 3 3 2 7 9 7 5 3 3 4 2 4 6 5 2 6 6 3 2 3 2 1 2 6 8 8 6 8 7 8 7 6 10 11 15 14 11 9 3 6 5 6 6
2 1 3 5 6 6 6 3 8 6 4 3 5 8 9 6 6 5 6 7 5 6 3 3 6 5 7 6 8 12 12 10 11 12 10 12 14 13 10 7 2 3 5 7 10
3 3 3 2 2 6 4 9 10 5 3 5 3 2 5 6 8 6 7 6 6 8 5 3 4 5 10 6 9 12 11 10 10 10 10 10 13 4 4 3 3 4 6 9 10
1 1 4 3 5 6 7 7 7 2 2 0 2 3 6 1 5 4 1 1 2 7 9 6 3 5 8 1 9 12 12 8 4 6 6 8 9 7 7 5 6 7 8 9 9
Wind_Direction
268 277 268 241 216 214 217 206 266 322 332 336 334 330 326 321 310 253 215 106 164 235 280 217 199 217 215 232 281 284 244 132 140 181 139 156 152 129 115 133 148 119 70 101 130
264 263 249 221 217 219 220 231 285 318 332 332 329 328 327 321 277 207 183 190 195 103 216 207 198 194 218 245 235 262 264 85 98 120 159 173 170 160 170 152 150 154 120 134 141
255 256 233 212 220 228 234 251 292 315 324 326 328 329 332 322 227 88 175 203 209 232 281 242 219 221 235 246 195 173 15 96 134 194 162 174 191 169 191 178 161 170 160 155 150
248 244 217 215 227 238 247 265 289 307 317 324 328 331 332 270 117 97 145 172 211 230 255 205 194 195 205 218 210 247 181 351 127 188 178 176 183 189 204 130 158 157 155 157 163
233 216 211 224 235 246 259 274 290 304 314 321 327 331 326 189 97 103 161 181 197 230 275 87 129 169 148 116 146 223 135 109 151 189 186 176 186 192 198 67 173 131 162 165 164
201 209 221 232 238 253 265 276 289 301 309 316 323 328 266 114 118 94 151 228 240 236 9 334 48 46 103 100 348 85 127 130 155 159 180 199 179 197 148 180 160 168 177 170 165
213 222 231 237 243 257 271 281 289 297 304 312 317 322 268 83 145 269 252 251 226 235 311 41 8 279 204 127 128 140 156 154 157 173 170 244 204 223 119 185 176 186 179 172 180
230 228 233 241 254 270 281 284 289 294 302 306 308 273 61 97 274 337 169 152 152 183 337 14 290 105 314 123 164 197 205 206 139 204 143 231 260 162 167 187 194 192 186 190 180
233 235 238 249 272 282 286 288 289 292 296 301 282 272 124 129 144 49 232 61 153 134 122 141 226 318 181 219 194 183 278 256 145 211 261 234 259 119 177 197 198 195 195 192 176
237 240 247 264 274 284 288 288 278 272 270 275 261 229 141 44 342 328 181 255 205 184 188 208 202 192 194 225 264 67 173 157 187 132 233 250 246 264 190 220 210 199 197 191 186
248 241 245 245 268 297 305 206 208 189 209 335 30 341 75 346 262 161 143 200 201 208 199 166 233 71 56 45 52 47 292 294 221 130 292 265 291 286 207 224 211 202 197 194 191
334 212 215 243 283 311 156 269 36 12 193 212 264 275 278 303 182 119 216 219 219 162 170 196 95 98 88 69 25 324 298 37 191 185 294 300 287 297 239 225 224 208 201 199 192
42 174 202 252 300 123 75 61 287 250 253 159 232 266 114 211 115 87 307 126 170 177 208 9 116 121 232 147 313 52 333 337 320 319 273 289 273 197 194 233 221 229 221 213 201
92 170 191 301 153 159 105 334 284 188 232 142 189 143 184 217 154 12 19 317 158 128 127 104 138 188 235 71 335 305 2 303 298 303 306 1 306 139 127 218 218 221 222 221 213
56 171 182 91 4 109 350 352 138 227 203 132 154 84 166 229 117 114 31 250 160 139 254 101 173 195 269 39 337 12 317 311 301 283 302 151 274 108 50 265 234 227 225 225 227
31 174 181 139 121 13 340 167 237 228 147 150 153 183 181 190 143 127 159 84 64 166 64 96 89 285 27 124 346 318 282 253 272 259 232 78 333 103 26 0 353 272 223 228 225
18 165 188 165 63 347 318 236 222 253 151 154 171 184 189 171 150 191 168 163 222 194 167 172 161 131 245 267 185 315 334 309 246 251 333 75 292 35 33 15 343 24 206 212 217
11 140 211 212 308 323 253 233 233 94 178 117 174 184 191 171 179 171 184 176 191 262 224 270 167 185 129 313 331 348 329 333 314 328 328 128 247 70 44 50 313 279 258 206 194
6 81 180 297 259 282 255 227 120 137 32 318 186 203 177 179 223 204 220 258 97 225 276 254 206 121 55 314 307 38 299 10 286 241 262 66 182 196 198 219 236 233 222 207 212
347 204 125 309 178 238 247 292 227 311 326 258 232 245 198 186 196 205 181 124 177 244 281 171 271 150 113 217 105 296 87 240 185 297 313 333 274 355 348 268 223 241 236 213 216
318 227 39 159 160 215 232 175 219 181 271 277 217 177 243 182 221 198 175 116 189 147 211 192 254 137 203 184 335 200 213 221 301 294 298 305 21 48 6 0 326 301 234 235 245
309 218 15 182 191 223 215 177 6 277 201 259 278 261 200 157 173 194 182 33 45 188 195 73 283 272 355 80 295 281 302 290 284 231 250 289 294 76 30 352 330 310 199 229 275
320 328 19 226 208 198 146 186 243 260 230 235 225 256 170 151 146 149 133 85 109 187 178 168 193 285 241 175 156 249 202 264 262 270 271 283 284 161 270 313 300 255 211 239 273
278 206 160 199 316 245 194 207 211 199 252 262 232 193 173 164 131 155 141 119 99 114 24 192 197 276 284 337 322 282 254 243 255 278 280 280 309 327 326 329 234 235 254 277 301
253 136 348 188 196 219 214 195 205 193 213 223 196 224 202 182 177 165 148 142 145 158 160 231 257 241 275 282 279 282 278 263 241 262 272 294 312 324 347 345 286 262 282 288 307
283 254 178 125 171 200 182 213 222 188 253 163 230 203 202 216 216 212 188 190 185 179 192 191 245 246 270 248 272 272 259 259 255 264 270 279 290 40 336 298 257 265 290 300 308
57 251 283 140 179 209 201 206 201 212 167 123 326 260 213 250 344 9 89 259 198 179 186 189 189 240 289 307 290 272 249 209 233 248 273 280 346 331 304 287 291 294 299 308 314